Location: Houston
(29.7630°N, 95.3630°W)
Time: 18:16:17
(UTC-05:00)

Daily predictions for brighter satellites

Satellite Brightness Start Highest point End
(mag) Time Altitude Azimuth Time Altitude Azimuth Time Altitude Azimuth
Cosmos 1727 Rocket 4.2 20:05:03 10° N 20:11:21 85° W 20:17:40 10° S
Okean 1-7 Rocket 3.5 20:11:44 10° N 20:16:07 76° E 20:20:29 10° S
Meteor 1-28 Rocket 4.4 20:14:09 10° N 20:17:49 48° WNW 20:21:28 10° SSW
Meteor 1-29 3.2 20:15:18 10° N 20:18:45 76° WNW 20:22:11 10° SSW
NOSS 2-1 (E) 3.5 20:17:59 10° SSW 20:21:49 75° WNW 20:25:56 10° NNE
Meteor 1-13 Rocket 4.3 20:16:37 10° N 20:22:28 82° E 20:28:07 10° S
Cosmos 2227 Rocket 3.9 20:26:11 10° NNE 20:29:21 15° ENE 20:32:24 10° E
Meteor 1-5 Rocket 4.4 20:24:30 10° SSE 20:29:29 44° E 20:34:34 10° NNE
ALOS 2.9 20:26:16 10° SE 20:30:31 37° ENE 20:34:48 10° N
FENGYUN 3A 4.2 20:26:18 10° SE 20:31:13 39° ENE 20:36:09 10° N
Meteor 1-19 Rocket 4.2 20:27:05 10° N 20:32:44 74° E 20:38:16 10° SSE
HJ-1C 3.8 20:32:52 10° S 20:36:06 62° W 20:39:21 10° NNW
Meteor 2-21 Rocket 4.4 20:31:43 10° S 20:37:52 73° E 20:44:03 10° N
Helios 1B rocket 4.4 20:36:43 10° N 20:40:27 33° WNW 20:44:08 10° SW
Cosmos 1777 Rocket 4.5 20:37:32 10° N 20:42:29 41° ENE 20:46:53 13° SE
Cosmos 2297 Rocket 3.9 20:42:12 10° NNE 20:45:11 14° ENE 20:47:09 12° E
Cosmos 2208 Rocket 4.0 20:42:03 10° S 20:47:17 71° ESE 20:52:37 10° NNE
Cosmos 2123 Rocket 4.4 20:42:01 10° NNE 20:47:45 40° E 20:53:28 10° SSE
Helios 1A 3.9 20:44:02 10° S 20:48:03 50° W 20:52:07 10° NNW
Resurs 1-3 4.0 20:48:07 10° S 20:52:27 64° WSW 20:56:48 10° NNW
Cosmos 1455 Rocket 2.9 20:51:50 10° S 20:56:08 73° E 21:00:27 10° N
Cosmos 1892 Rocket 3.5 20:51:42 10° N 20:56:10 67° E 21:00:36 10° SSE
Meteor 2-14 Rocket 4.5 20:50:49 10° S 20:56:58 88° W 21:03:10 10° N
Cosmos 1975 3.7 20:55:16 20° SE 20:57:12 30° E 21:00:48 10° NNE
BREEZE-M DEB (TANK) 4.3 20:54:04 10° WSW 20:57:18 55° NNW 21:06:54 10° NE
Okean 2 3.4 20:53:46 10° N 20:57:53 57° E 21:01:10 15° SSE
MDS-1 4.3 20:56:20 10° WSW 20:58:17 47° SSE 20:59:19 31° ESE
Meteor 2-15 4.4 20:53:39 10° N 20:59:39 64° E 21:05:38 10° SSE
Cosmos 1025 Rocket 3.6 20:57:06 10° NNW 21:01:23 59° W 21:05:37 10° S
CZ-4B DEB 4.5 21:00:02 18° SSE 21:02:34 67° ENE 21:06:10 10° N
Meteor 2-15 Rocket 4.4 20:58:32 10° N 21:04:31 59° E 21:09:59 12° SSE
Cosmos 1570 Rocket 4.4 21:00:31 10° SSW 21:05:47 68° WNW 21:11:04 10° N
NOSS 3-4 (A) 4.3 20:59:56 10° NNW 21:06:44 45° ENE 21:10:47 25° ESE
NOSS 3-4 (C) 4.3 21:00:04 10° NNW 21:06:51 44° ENE 21:10:52 25° ESE
Resurs 01 Rocket 3.5 21:03:22 10° SSW 21:07:15 30° W 21:11:10 10° NW
Cosmos 2219 3.8 21:01:52 10° NNW 21:07:21 56° WSW 21:12:49 10° S
EO 1 Delta rocket 4.1 21:03:20 10° N 21:08:05 84° W 21:13:40 10° SSW
Envisat 4.1 21:11:14 25° E 21:11:54 25° ENE 21:16:00 10° NNE
Cosmos 1461 4.3 21:10:44 10° N 21:13:43 20° NE 21:13:43 20° NE
CZ-4 DEB 4.1 21:14:51 25° NE 21:14:51 25° NE 21:16:45 10° NNE
Cosmos 1934 Rocket 4.4 21:08:48 10° SSW 21:14:49 65° W 21:20:57 10° N
Meteor 1-12 Rocket 4.2 21:10:14 10° S 21:15:51 69° E 21:21:35 10° NNE
USA 186 1.8 21:15:37 32° S 21:16:55 74° W 21:20:00 10° NNW
Cosmos 2278 4.1 21:13:20 10° SSW 21:18:55 64° WNW 21:24:35 10° NNE
Cosmos 1697 Rocket 3.0 21:13:54 10° S 21:19:07 40° ESE 21:24:22 10° NE
Meteor 2-4 Rocket 4.5 21:13:47 10° NNW 21:19:31 57° W 21:25:17 10° S
Orbus 7S 3.1 21:15:52 10° W 21:21:14 60° S 21:21:38 54° SSE
H-2A R/B 3.3 21:19:17 16° S 21:22:13 57° W 21:26:03 10° NNW
OTV 4 2.7 21:21:22 10° NW 21:23:30 18° N 21:23:53 17° NNE
Cosmos 1939 Rocket 3.7 21:28:30 35° NE 21:28:30 35° NE 21:31:44 10° N
Cosmos 2369 4.4 21:26:21 10° SW 21:31:52 55° WNW 21:37:27 10° N
Delta 2 Rocket 4.4 21:27:42 10° WNW 21:33:06 52° N 21:34:44 37° ENE
SJ-11-01 4.2 21:36:23 57° SE 21:37:12 71° ENE 21:41:52 10° N
Iridium 4 Rocket 3.1 21:33:37 10° N 21:38:38 73° E 21:39:24 60° SSE
Cosmos 1980 Rocket 3.8 21:44:07 19° NE 21:44:07 19° NE 21:45:54 10° NE
OAO 2 Rocket 3.8 21:36:06 10° W 21:41:04 58° NNW 21:42:57 36° NE
ERS-1 Rocket 2.8 21:47:32 64° SSE 21:48:18 85° ENE 21:53:21 10° N
Hubble Space Telescope 1.6 21:44:25 10° W 21:47:42 43° SW 21:47:42 43° SW
Cosmos 2173 Rocket 3.9 21:53:55 56° SE 21:55:01 66° E 22:01:19 10° NNE
Cosmos 1898 Rocket 4.4 21:51:02 10° N 21:54:53 35° NE 21:54:53 35° NE
Cosmos 2061 Rocket 3.9 22:00:39 62° SSE 22:01:39 76° E 22:07:56 10° N
Cosmos 2100 Rocket 3.9 22:02:00 50° S 22:03:49 88° E 22:10:07 10° N
Cosmos 468 Rocket 4.4 22:09:26 39° SW 22:11:07 60° WNW 22:16:10 10° N
Centaur D-1A AC-32 4.1 22:10:39 10° WSW 22:11:42 18° WSW 22:11:42 18° WSW
Cosmos 2227 Rocket 2.5 22:08:12 10° NNW 22:13:45 59° WSW 22:14:14 57° SW
Cosmos 1814 Rocket 4.4 22:17:56 63° W 22:18:08 63° WNW 22:23:26 10° N
CZ-3 Stage 3 3.9 21:26:32 10° W 22:20:18 74° SSW 22:21:57 60° SE
Milstar 3 Cent rocket 3.7 22:03:59 10° W 22:23:42 83° S 22:26:27 57° ESE
H-2A R/B 4.0 22:26:31 25° NNW 22:26:31 25° NNW 22:28:19 10° NNW
Cosmos 2082 4.4 22:21:00 10° NNW 22:26:23 48° WSW 22:26:27 48° WSW
Cosmos 2297 Rocket 2.6 22:24:03 10° NNW 22:28:59 58° WNW 22:28:59 58° WNW
SPOT 5 4.0 22:31:47 42° NNW 22:31:47 42° NNW 22:35:05 10° NNW
Lacrosse 5 4.0 22:28:42 10° N 22:30:48 19° NNE 22:30:48 19° NNE
H-2A R/B 4.4 22:50:51 13° NNE 22:50:51 13° NNE 22:51:30 10° N
Cosmos 1980 Rocket 4.3 23:25:46 23° NW 23:25:46 23° NW 23:29:16 10° N
